Location: Unspecified
(29.9680°N, 0.0000°E)
Time: 11:29:06
(UTC+00:00)

A-11 Canister half - Pass Details

Date: 22 June 2019
Orbit: 1526 x 1683 km, 47.3° (Epoch: 19 July)

Event Time Altitude Azimuth Distance (km) Brightness Sun altitude
Rises 04:44:31 0° 251° (WSW) 4,768 - -3.7°
Exits shadow 04:45:31 - 253° (WSW) 4,460 10.8 -3.5°
Reaches altitude 10° 04:47:48 10° 257° (WSW) 3,763 10.4 -3.1°
Maximum altitude 04:56:54 49° 330° (NNW) 1,919 9.6 -1.4°
Drops below altitude 10° 05:05:51 10° 44° (NE) 3,695 12.6 0.4°
Sets 05:09:03 0° 50° (NE) 4,676 13.6 1.0°
